#timestamp,LO_Frequency,Hit,StdDev 
1552395615.7,286047003.0,N
1552395635.6,286047005.1,Y
1552395655.4,286047005.2,P
1552395675.3,286047003.2,N
1552395695.1,286047003.7,N
1552395696.0,286047003.7,N
1552395715.8,286047003.8,N
1552395735.7,286047003.1,N
1552395755.5,286047004.6,Y
1552395775.3,286047002.1,P
1552395795.2,286047002.2,P
1552395815.0,286047000.2,N
1552395815.9,286047000.2,N
1552395835.8,286047000.0,N
1552395855.6,286047000.5,N
1552395875.4,286046998.1,N
1552395895.3,286046999.0,N
1552395915.1,286046999.1,N
1552395935.8,286046996.5,N
1552395955.7,286046997.1,N
1552395975.5,286046994.9,N
1552395995.4,286046995.4,N
1552396015.2,286046999.2,N
1552396035.0,286047000.5,N
1552396035.9,286047000.5,N
1552396055.8,286047000.0,N
1552396075.6,286046998.2,N
1552396095.4,286046998.3,N
1552396115.3,286046998.3,N
1552396135.1,286046998.7,N
1552396155.9,286046997.1,N
1552396175.7,286046996.7,N
1552396195.5,286047000.4,N
1552396215.4,286047002.8,N
1552396235.2,286047002.2,N
1552396255.1,286047004.0,N
1552396256.0,286047004.0,N
1552396275.8,286047001.4,N
1552396295.6,286047002.0,N
1552396315.5,286047003.1,N
1552396335.3,286047006.0,N
1552396355.1,286047007.5,N
1552396375.9,286047006.8,N
1552396395.7,286047008.4,N
1552396415.6,286047006.1,N
1552396435.4,286047010.7,N
1552396455.2,286047009.4,N
1552396475.1,286047012.0,N
1552396476.0,286047012.0,N
1552396495.8,286047011.8,N
1552396515.7,286047010.2,N
1552396535.5,286047008.0,N
1552396555.3,286047008.6,N
1552396575.2,286047007.3,N
1552396595.0,286047004.6,N
1552396595.9,286047004.6,N
1552396615.8,286047005.8,N
1552396635.6,286047007.3,N
1552396655.4,286047007.7,N
1552396675.3,286047012.4,Y
1552396695.1,286047007.5,P
1552396715.8,286047005.7,P
1552396735.7,286047005.4,P
1552396755.5,286047005.4,Y
1552396775.4,286046996.6,P
1552396795.2,286046999.6,N
1552396815.0,286046997.9,N
1552396815.9,286046997.9,N
1552396835.8,286046995.0,N
1552396855.6,286046994.9,N
1552396875.5,286046998.4,N
1552396895.3,286046999.3,N
1552396915.1,286046999.1,N
1552396935.9,286046996.9,N
1552396955.7,286046995.1,N
1552396975.5,286046997.6,N
1552396995.4,286046995.5,N
1552397015.2,286046993.4,N
1552397035.1,286046994.1,N
1552397036.0,286046994.1,N
1552397055.8,286046993.0,N
1552397075.6,286046993.1,N
1552397095.5,286046990.2,Y
1552397115.3,286046993.7,P
1552397135.1,286046991.8,P
1552397155.9,286046994.3,N
1552397175.7,286046996.2,N
1552397195.6,286046993.8,Y
1552397215.4,286046999.8,P
1552397235.2,286047002.4,N
1552397255.1,286047002.2,N
1552397256.0,286047002.2,N
1552397275.8,286047003.7,N
1552397295.7,286047002.6,N
1552397315.5,286047001.6,N
1552397335.3,286047002.3,N
1552397355.2,286047011.9,Y
1552397375.0,286046998.8,P
1552397375.9,286046998.8,N
1552397395.7,286047000.8,N
1552397415.6,286046999.1,N
1552397435.4,286046999.4,N
1552397455.3,286046999.1,N
1552397475.1,286047001.2,N
1552397495.8,286046999.0,N
1552397515.7,286046996.9,Y
1552397535.5,286046997.8,P
1552397555.4,286046997.3,N
1552397575.2,286046997.3,N
1552397595.0,286046998.0,N
1552397626.0,286046998.6,E
1552397635.9,286047000.1,N
1552397655.7,286047002.9,P
1552397675.6,286047004.3,P
1552397695.4,286047005.0,N
1552397715.2,286047005.9,Y
1552397735.1,286047001.5,P
1552397736.0,286047001.5,N
1552397755.8,286047005.9,P
1552397775.7,286047002.6,N
1552397795.5,286047000.9,N
1552397815.3,286046998.5,N
1552397835.2,286047001.3,N
1552397855.0,286047001.3,N
1552397855.9,286047001.3,N
1552397875.7,286047002.7,N
1552397895.6,286046999.8,N
1552397915.4,286047000.1,N
1552397935.3,286047000.0,N
1552397955.1,286046998.2,N
1552397956.0,286046998.2,N
1552397975.8,286046999.3,N
1552397995.7,286046999.5,N
1552398015.5,286046996.5,N
1552398035.4,286046997.4,N
1552398055.2,286046997.2,N
1552398075.0,286046997.4,N
1552398075.9,286046997.4,N
1552398095.8,286046997.1,N
1552398115.6,286046995.9,N
1552398135.4,286046993.3,N
1552398155.3,286046996.2,N
1552398175.1,286046994.2,N
1552398195.9,286046994.1,N
1552398215.7,286046991.7,N
1552398235.5,286046994.5,N
1552398255.4,286046994.3,N
1552398275.2,286046993.6,N
1552398295.0,286046994.7,N
1552398295.9,286046994.7,N
1552398315.8,286046992.3,N
1552398335.6,286046990.1,Y
1552398355.5,286046996.3,P
1552398375.3,286046994.1,P
1552398395.1,286046991.7,P
1552398415.9,286046991.7,Y
1552398435.7,286046997.2,P
1552398455.6,286046995.4,P
1552398475.4,286046996.8,P
1552398495.2,286046998.0,N
1552398515.1,286046993.4,Y
1552398516.0,286046993.4,P
1552398535.8,286046999.4,N
1552398555.7,286046996.7,N
1552398575.5,286046997.4,N
1552398595.3,286046997.6,N
1552398615.2,286046997.3,N
1552398635.0,286046995.6,N
1552398635.9,286046995.6,N
1552398655.7,286046995.6,N
1552398675.6,286046995.9,N
1552398695.4,286046993.7,Y
1552398715.3,286046997.0,P
1552398735.1,286046995.4,P
1552398755.8,286046998.0,P
1552398775.7,286046996.5,Y
1552398795.5,286047000.3,P
1552398815.4,286046998.3,N
1552398835.2,286046999.8,N
1552398855.0,286047001.7,N
1552398855.9,286047001.7,N
1552398875.8,286047003.1,N
1552398895.6,286047005.7,N
1552398915.4,286047006.5,N
1552398935.3,286047007.8,N
1552398955.1,286047013.7,Y
1552398975.9,286047012.1,P
1552398995.7,286047013.2,N
1552399015.5,286047015.4,P
1552399035.4,286047014.9,N
1552399055.2,286047012.9,N
1552399075.1,286047013.9,Y
1552399076.0,286047013.9,P
1552399095.8,286047001.1,N
1552399115.6,286047001.2,N
1552399135.5,286046998.5,N
1552399155.3,286047000.5,N
1552399175.1,286046998.2,N
1552399195.9,286046999.2,N
